STARLINK-1202, 45183

Orbit data source: Space-Track

STARLINK-1202, 45183 is a payload satellite owned by SpaceX/Seattle (US) in LEO that was launched on Mon, 17 Feb 2020 UTC via an FALCON 9 launch vehicle from the Air Force Eastern Test Range (AFETR). Payload-class satellites include a variety of spacecraft equipped with specific instruments for various scientific and technological missions. These include communications satellites like Starlink; space stations such as the ISS; scientific satellites like the Hubble; Earth observation satellites from companies like Planet Labs, Umbra, and HawkEye 360; GPS; miniature CubeSats for education and research; and military/defense satellites.

Loading next visibility...
Identifier
45183, 2020-012F
Orbit
LEO
Country
Flag of USUS
Related business
Manufacturer
SpaceX/Seattle
Mission
Partially operational Commercial Communications
Bus & Motor
STARLINK, Unknown motor
Mass
260 kg wet, ~248 kg dry
Launch date (UTC)
2020-02-17 (6 years ago)
Launch vehicle
FALCON 9
Launch site
Air Force Eastern Test Range (AFETR)
Object type
Payload
Rocket body
Debris
Shape & HBR
Box + 1 Pan, 10.1 m
Radar Cross Section
13.562 m², Large (>1 m²)

Expand to show TLE details & history
Last TLE update: 12 hours ago

TLE from 12 hours ago
0 STARLINK-1202
1 45183U 20012F   26124.45456946  .00041534  00000-0  13319-2 0  9990
2 45183  53.1549 140.0826 0003163  50.8436 309.2846 15.31956580343498
Epoch: 2026-05-04T10:54Z
TLE epoch observation values (Epoch: 2026-05-04T10:54:34.801Z)
Latitude
-0.00002°
Longitude
114.09405°
Altitude
469.504 km
Speed
7.633 km/s
True Right ascension
09h 20m 19s
True Declination
0° 00' 00"
Sunlit
Object was in daylight at epoch
Visualization orbit readout
Latitude
Unknown
Longitude
Unknown
Altitude
Unknown
Speed
Unknown
Apparent Right ascension
Unknown
Apparent Declination
Unknown
Sunlit
N/A
Visualization observer readout
Local Sidereal Time
06:41:02
Azimuth
Unknown
Elevation
Unknown
Doppler factor
Unknown
Orbital elements
Apogee altitude
472.399 km
Perigee altitude
468.067 km
Semi-major axis
6,848.37 km
Eccentricity
0.00032
Inclination
53.1549°
RAAN
140.0826°
Arg. of periapsis
50.8436°
True anomaly
309.25654°
Mean anomaly
309.2846°
Eccentric anomaly
309.27057°
Mean motion
3.82968 °/min
Orbital period
94 mins
BSTAR
0.0013319
Loading maneuver chart data...
Computing Atmospheric mass density...
Loading historical data...
Loading historical data...
Loading historical data...
Loading historical data...
Loading historical data...
Loading historical data...
Loading historical data...

Documentation

Showing up to 5 results
|